Location: Canet
(43.3261°N, 5.3723°E)
Time: 15:49:44
(UTC+00:00)

Envisat - Pass Details

Date: 01 October 2021
Orbit: 764 x 766 km, 98.2° (Epoch: 19 October)

Event Time Altitude Azimuth Distance (km) Brightness Sun altitude
Rises 03:35:02 0° 30° (NNE) 3,239 7.0 -22.5°
Reaches altitude 10° 03:38:09 10° 50° (NE) 2,307 6.4 -22.0°
Maximum altitude 03:41:27 17° 90° (E) 1,852 5.9 -21.4°
Drops below altitude 10° 03:44:44 10° 131° (SE) 2,296 5.9 -20.8°
Sets 03:47:48 0° 151° (SSE) 3,216 6.4 -20.3°
